{"data":{"norad_id":59079,"intl_designator":"2024-041F","name":"STARLINK-31257","alt_names":[],"object_type":"PAYLOAD","status":"ACTIVE","operator":null,"country":"US","launch_date":"2024-02-29","launch_site_code":"AFETR","launch_vehicle":null,"mission":null,"orbit_class":"UNKNOWN","rcs_meters":null,"size_class":null,"mass_kg":null,"dimensions":null,"purposes":["comms"],"wikipedia_slug":null,"has_3d_model":false,"image_url":null,"decayed_at":null,"tle_current":{"epoch":"2026-05-24T17:41:21.443136Z","epoch_age_seconds":104585,"freshness":"FRESH","line1":"1 59079U 24041F   26144.73705374  .00002213  00000+0  89887-4 0  9995","line2":"2 59079  43.0007 241.0863 0001297 262.0256  98.0449 15.27589876125901","mean_motion":15.27589876,"eccentricity":0.0001297,"inclination_deg":43.0007,"raan_deg":241.0863,"arg_perigee_deg":262.0256,"mean_anomaly_deg":98.0449,"bstar":8.9887e-5,"rev_number":12590,"period_min":94.266139271009,"perigee_km":482.12963190095,"apogee_km":483.90941590325,"semimajor_km":6861.1565239021,"source":"CELESTRAK","updated_at":"2026-05-25T13:38:18.828547Z"}}}